SWR2MB EDDF-LSGG

Flight info

Callsign SWR2MB
Flight time 1h 8m
Altitude 29000
Route ANEKI2L/18 ANEKI Y163 PABLA/N0436F310 Y163 HERBI Y164 MOPAN DCT LUTIX DCT BENOT
Aircraft A320/M-SDE2E3FGIRWXY/L

Departure

Time 2026-05-07 18:26
Airport Frankfurt Main Airport (EDDF)

Arrival

Time 2026-05-07 19:34
Airport Geneva International Airport (LSGG)
Time Latitude Longitude Altitude Speed Heading
2026-05-07 17:58 50.04042 8.55545 351 ft 0 kts 160°
2026-05-07 18:20 50.04040 8.55546 351 ft 2 kts 160°
2026-05-07 18:21 50.04009 8.55564 358 ft 6 kts 160°
2026-05-07 18:21 50.03956 8.55557 357 ft 11 kts 219°
2026-05-07 18:21 50.03919 8.55418 351 ft 17 kts 251°
2026-05-07 18:21 50.03873 8.55221 357 ft 21 kts 250°
2026-05-07 18:22 50.03819 8.54993 355 ft 24 kts 250°
2026-05-07 18:22 50.03778 8.54823 351 ft 26 kts 250°
2026-05-07 18:22 50.03710 8.54534 345 ft 18 kts 248°
2026-05-07 18:22 50.03713 8.54393 351 ft 13 kts 318°
2026-05-07 18:23 50.03795 8.54332 353 ft 13 kts 320°
2026-05-07 18:23 50.03795 8.54199 345 ft 13 kts 248°
2026-05-07 18:23 50.03763 8.54069 347 ft 13 kts 250°
2026-05-07 18:23 50.03733 8.53942 350 ft 12 kts 249°
2026-05-07 18:24 50.03702 8.53812 344 ft 17 kts 249°
2026-05-07 18:24 50.03647 8.53592 346 ft 26 kts 247°
2026-05-07 18:24 50.03574 8.53297 338 ft 31 kts 250°
2026-05-07 18:24 50.03507 8.53012 338 ft 29 kts 250°
2026-05-07 18:25 50.03437 8.52747 332 ft 25 kts 249°
2026-05-07 18:25 50.03312 8.52595 336 ft 26 kts 178°
2026-05-07 18:25 50.03014 8.52598 332 ft 76 kts 179°
2026-05-07 18:25 50.02237 8.52609 334 ft 144 kts 179°
2026-05-07 18:26 50.01087 8.52623 601 ft 173 kts 179°
2026-05-07 18:26 49.99866 8.52643 1319 ft 178 kts 178°
2026-05-07 18:26 49.98598 8.52695 2032 ft 188 kts 178°
2026-05-07 18:26 49.97245 8.52785 2634 ft 200 kts 177°
2026-05-07 18:27 49.95795 8.52917 3100 ft 220 kts 176°
2026-05-07 18:27 49.94192 8.53104 3486 ft 246 kts 175°
2026-05-07 18:27 49.92389 8.53339 4040 ft 266 kts 176°
2026-05-07 18:27 49.90623 8.53464 5564 ft 247 kts 179°
2026-05-07 18:28 49.88905 8.53542 6576 ft 254 kts 180°
2026-05-07 18:28 49.87065 8.53617 7138 ft 273 kts 180°
2026-05-07 18:28 49.85137 8.53709 8026 ft 280 kts 179°
2026-05-07 18:28 49.83200 8.53818 8979 ft 284 kts 179°
2026-05-07 18:29 49.81213 8.53937 9948 ft 288 kts 179°
2026-05-07 18:29 49.79232 8.54067 11007 ft 286 kts 179°
2026-05-07 18:29 49.77169 8.54018 11357 ft 309 kts 186°
2026-05-07 18:29 49.74954 8.53719 11823 ft 326 kts 186°
2026-05-07 18:30 49.72656 8.53412 12453 ft 338 kts 186°
2026-05-07 18:30 49.70277 8.53092 12936 ft 346 kts 186°
2026-05-07 18:30 49.67871 8.52775 13286 ft 350 kts 186°
2026-05-07 18:30 49.65442 8.52457 14146 ft 352 kts 186°
2026-05-07 18:31 49.62989 8.52135 14917 ft 355 kts 186°
2026-05-07 18:31 49.60518 8.51809 15658 ft 358 kts 186°
2026-05-07 18:31 49.58026 8.51480 16391 ft 362 kts 186°
2026-05-07 18:31 49.55504 8.51148 17118 ft 365 kts 186°
2026-05-07 18:32 49.52958 8.50815 17838 ft 369 kts 187°
2026-05-07 18:32 49.50393 8.50480 18526 ft 373 kts 187°
2026-05-07 18:32 49.47796 8.50140 19142 ft 376 kts 187°
2026-05-07 18:32 49.45169 8.49795 19765 ft 380 kts 187°
2026-05-07 18:33 49.42525 8.49446 20386 ft 383 kts 187°
2026-05-07 18:33 49.39856 8.49097 21019 ft 387 kts 187°
2026-05-07 18:33 49.37164 8.48744 21635 ft 390 kts 187°
2026-05-07 18:33 49.34443 8.48388 22249 ft 394 kts 187°
2026-05-07 18:34 49.31698 8.48031 22856 ft 398 kts 187°
2026-05-07 18:34 49.28930 8.47677 23432 ft 401 kts 187°
2026-05-07 18:34 49.26151 8.47325 23939 ft 405 kts 187°
2026-05-07 18:34 49.23312 8.46963 24414 ft 408 kts 187°
2026-05-07 18:35 49.20475 8.46593 24879 ft 411 kts 187°
2026-05-07 18:35 49.17618 8.46213 25344 ft 413 kts 187°
2026-05-07 18:35 49.14740 8.45829 25780 ft 416 kts 187°
2026-05-07 18:35 49.11948 8.44981 26195 ft 415 kts 201°
2026-05-07 18:36 49.09227 8.43465 26626 ft 418 kts 202°
2026-05-07 18:36 49.06507 8.41910 27039 ft 420 kts 203°
2026-05-07 18:36 49.03762 8.40325 27450 ft 423 kts 203°
2026-05-07 18:36 49.01002 8.38729 27853 ft 426 kts 203°
2026-05-07 18:37 48.98221 8.37125 28253 ft 429 kts 203°
2026-05-07 18:37 48.95424 8.35521 28659 ft 431 kts 203°
2026-05-07 18:37 48.92606 8.33913 29038 ft 434 kts 203°
2026-05-07 18:37 48.89780 8.32302 29407 ft 436 kts 203°
2026-05-07 18:38 48.86925 8.30677 29774 ft 439 kts 203°
2026-05-07 18:38 48.84059 8.29049 30112 ft 441 kts 203°
2026-05-07 18:38 48.81170 8.27411 30401 ft 444 kts 203°
2026-05-07 18:38 48.78271 8.25771 30681 ft 446 kts 203°
2026-05-07 18:39 48.75362 8.24126 30962 ft 447 kts 203°
2026-05-07 18:39 48.69637 8.20891 31058 ft 428 kts 203°
2026-05-07 18:40 48.64113 8.17769 31060 ft 422 kts 203°
2026-05-07 18:40 48.58624 8.14667 31061 ft 421 kts 203°
2026-05-07 18:41 48.53136 8.11575 31063 ft 421 kts 203°
2026-05-07 18:41 48.47642 8.08498 31061 ft 421 kts 203°
2026-05-07 18:42 48.42150 8.05431 31055 ft 421 kts 203°
2026-05-07 18:42 48.36700 8.02394 31044 ft 420 kts 203°
2026-05-07 18:43 48.31218 7.99353 31044 ft 420 kts 203°
2026-05-07 18:43 48.25746 7.96306 31050 ft 419 kts 203°
2026-05-07 18:44 48.20277 7.93274 31051 ft 419 kts 203°
2026-05-07 18:44 48.14808 7.90251 31042 ft 419 kts 203°
2026-05-07 18:45 48.09348 7.87238 31054 ft 418 kts 203°
2026-05-07 18:45 48.03892 7.84235 31059 ft 418 kts 203°
2026-05-07 18:46 47.98434 7.81244 31049 ft 417 kts 203°
2026-05-07 18:46 47.92984 7.78260 31042 ft 417 kts 203°
2026-05-07 18:47 47.87548 7.75282 31044 ft 416 kts 203°
2026-05-07 18:47 47.82110 7.72317 31045 ft 416 kts 203°
2026-05-07 18:48 47.76678 7.69363 31052 ft 416 kts 203°
2026-05-07 18:48 47.71246 7.66411 31051 ft 415 kts 203°
2026-05-07 18:49 47.65819 7.63469 31046 ft 415 kts 203°
2026-05-07 18:49 47.60434 7.60563 31055 ft 415 kts 203°
2026-05-07 18:50 47.55014 7.57635 31034 ft 414 kts 203°
2026-05-07 18:50 47.49603 7.54724 31040 ft 413 kts 204°
2026-05-07 18:51 47.44202 7.51829 31043 ft 413 kts 204°
2026-05-07 18:51 47.38800 7.48945 31036 ft 412 kts 204°
2026-05-07 18:52 47.33418 7.46063 31014 ft 411 kts 204°
2026-05-07 18:52 47.28045 7.43194 31017 ft 410 kts 204°
2026-05-07 18:53 47.22685 7.40345 31021 ft 409 kts 204°
2026-05-07 18:53 47.17531 7.36968 31020 ft 402 kts 217°
2026-05-07 18:54 47.13461 7.31495 30667 ft 396 kts 234°
2026-05-07 18:54 47.11755 7.28316 30421 ft 397 kts 234°
2026-05-07 18:54 47.10042 7.25138 30169 ft 398 kts 234°
2026-05-07 18:54 47.08317 7.21959 29900 ft 399 kts 234°
2026-05-07 18:55 47.06586 7.18778 29612 ft 399 kts 233°
2026-05-07 18:55 47.04854 7.15599 29343 ft 398 kts 233°
2026-05-07 18:55 47.03127 7.12434 29058 ft 397 kts 233°
2026-05-07 18:55 47.01405 7.09282 28778 ft 396 kts 233°
2026-05-07 18:56 47.00265 7.07198 28588 ft 395 kts 233°
2026-05-07 18:56 46.98001 7.03056 28100 ft 391 kts 233°
2026-05-07 18:56 46.96309 6.99969 27494 ft 386 kts 233°
2026-05-07 18:56 46.94633 6.96920 26938 ft 382 kts 233°
2026-05-07 18:57 46.93513 6.94887 26565 ft 380 kts 233°
2026-05-07 18:57 46.91326 6.90925 25829 ft 376 kts 231°
2026-05-07 18:57 46.89540 6.88140 25296 ft 374 kts 228°
2026-05-07 18:57 46.87745 6.85409 24778 ft 372 kts 228°
2026-05-07 18:58 46.86537 6.83574 24436 ft 370 kts 228°
2026-05-07 18:58 46.84757 6.80877 23932 ft 368 kts 228°
2026-05-07 18:58 46.82986 6.78197 23427 ft 365 kts 228°
2026-05-07 18:58 46.81230 6.75545 22913 ft 361 kts 228°
2026-05-07 18:59 46.79493 6.72926 22442 ft 357 kts 228°
2026-05-07 18:59 46.77776 6.70336 21971 ft 353 kts 228°
2026-05-07 18:59 46.76079 6.67772 21495 ft 349 kts 228°
2026-05-07 18:59 46.74397 6.65238 21032 ft 346 kts 228°
2026-05-07 19:00 46.72728 6.62724 20549 ft 344 kts 228°
2026-05-07 19:00 46.71070 6.60225 20071 ft 342 kts 228°
2026-05-07 19:00 46.69420 6.57739 19587 ft 341 kts 228°
2026-05-07 19:00 46.67773 6.55258 19104 ft 340 kts 228°
2026-05-07 19:01 46.66131 6.52792 18618 ft 339 kts 228°
2026-05-07 19:01 46.64509 6.50361 18104 ft 339 kts 228°
2026-05-07 19:01 46.62871 6.47912 17603 ft 337 kts 227°
2026-05-07 19:01 46.61240 6.45477 17119 ft 335 kts 227°
2026-05-07 19:02 46.59619 6.43057 16652 ft 333 kts 227°
2026-05-07 19:02 46.58010 6.40654 16182 ft 331 kts 227°
2026-05-07 19:02 46.56407 6.38263 15708 ft 330 kts 227°
2026-05-07 19:02 46.54810 6.35880 15251 ft 329 kts 227°
2026-05-07 19:03 46.53216 6.33503 14852 ft 328 kts 227°
2026-05-07 19:03 46.51614 6.31125 14619 ft 331 kts 226°
2026-05-07 19:03 46.50002 6.28740 14355 ft 330 kts 226°
2026-05-07 19:03 46.48400 6.26376 13961 ft 327 kts 226°
2026-05-07 19:04 46.46809 6.24031 13475 ft 325 kts 226°
2026-05-07 19:04 46.45227 6.21704 13016 ft 323 kts 226°
2026-05-07 19:04 46.43658 6.19399 12556 ft 320 kts 226°
2026-05-07 19:04 46.42106 6.17119 12105 ft 316 kts 226°
2026-05-07 19:05 46.40569 6.14859 11630 ft 313 kts 226°
2026-05-07 19:05 46.39044 6.12618 11177 ft 310 kts 225°
2026-05-07 19:05 46.37535 6.10404 10718 ft 307 kts 225°
2026-05-07 19:05 46.36035 6.08211 10270 ft 305 kts 225°
2026-05-07 19:06 46.34551 6.06038 9933 ft 300 kts 225°
2026-05-07 19:06 46.31749 6.01928 9647 ft 275 kts 225°
2026-05-07 19:06 46.30415 5.99978 9322 ft 271 kts 224°
2026-05-07 19:07 46.29098 5.98055 8950 ft 268 kts 224°
2026-05-07 19:07 46.27789 5.96149 8518 ft 267 kts 224°
2026-05-07 19:07 46.26480 5.94246 8096 ft 267 kts 224°
2026-05-07 19:07 46.25175 5.92344 7660 ft 266 kts 224°
2026-05-07 19:08 46.23871 5.90440 7225 ft 267 kts 224°
2026-05-07 19:08 46.22575 5.88546 7011 ft 266 kts 224°
2026-05-07 19:08 46.21285 5.86666 7008 ft 268 kts 224°
2026-05-07 19:08 46.19967 5.84756 7016 ft 269 kts 224°
2026-05-07 19:09 46.18645 5.82844 7013 ft 269 kts 224°
2026-05-07 19:09 46.17323 5.80932 7014 ft 269 kts 224°
2026-05-07 19:09 46.16002 5.79020 7016 ft 269 kts 224°
2026-05-07 19:09 46.14681 5.77105 7013 ft 269 kts 224°
2026-05-07 19:10 46.13361 5.75190 7019 ft 270 kts 224°
2026-05-07 19:10 46.12035 5.73274 7018 ft 270 kts 224°
2026-05-07 19:10 46.10744 5.71407 7012 ft 253 kts 224°
2026-05-07 19:10 46.09569 5.69708 7008 ft 225 kts 222°
2026-05-07 19:11 46.08316 5.68672 6975 ft 199 kts 189°
2026-05-07 19:11 46.06987 5.68898 6782 ft 194 kts 152°
2026-05-07 19:11 46.05940 5.70102 6544 ft 194 kts 136°
2026-05-07 19:11 46.05027 5.71522 6316 ft 193 kts 133°
2026-05-07 19:12 46.04422 5.73215 6098 ft 194 kts 97°
2026-05-07 19:12 46.04580 5.75150 6003 ft 198 kts 76°
2026-05-07 19:12 46.04980 5.77046 6005 ft 198 kts 74°
2026-05-07 19:12 46.05372 5.78947 6012 ft 198 kts 76°
2026-05-07 19:13 46.05755 5.80849 6014 ft 198 kts 76°
2026-05-07 19:13 46.06136 5.82754 6006 ft 198 kts 76°
2026-05-07 19:13 46.06510 5.84660 6007 ft 198 kts 76°
2026-05-07 19:13 46.07094 5.86477 5776 ft 203 kts 51°
2026-05-07 19:14 46.08071 5.87937 5518 ft 202 kts 46°
2026-05-07 19:14 46.09061 5.89366 5249 ft 201 kts 46°
2026-05-07 19:14 46.10034 5.90777 4983 ft 201 kts 46°
2026-05-07 19:14 46.11002 5.92185 4736 ft 193 kts 47°
2026-05-07 19:15 46.11934 5.93542 4457 ft 189 kts 46°
2026-05-07 19:15 46.12852 5.94880 4201 ft 187 kts 46°
2026-05-07 19:15 46.13733 5.96164 3958 ft 172 kts 46°
2026-05-07 19:15 46.14537 5.97336 3744 ft 156 kts 45°
2026-05-07 19:16 46.15256 5.98386 3552 ft 140 kts 45°
2026-05-07 19:16 46.15923 5.99359 3376 ft 133 kts 45°
2026-05-07 19:16 46.16566 6.00298 3197 ft 130 kts 45°
2026-05-07 19:16 46.17198 6.01222 3021 ft 129 kts 45°
2026-05-07 19:17 46.17825 6.02138 2848 ft 128 kts 45°
2026-05-07 19:17 46.18452 6.03054 2671 ft 128 kts 45°
2026-05-07 19:17 46.19080 6.03973 2488 ft 129 kts 45°
2026-05-07 19:17 46.19711 6.04894 2314 ft 129 kts 44°
2026-05-07 19:18 46.20346 6.05813 2127 ft 129 kts 44°
2026-05-07 19:18 46.20983 6.06729 1941 ft 129 kts 44°
2026-05-07 19:18 46.21616 6.07647 1786 ft 129 kts 45°
2026-05-07 19:18 46.22237 6.08600 1636 ft 130 kts 46°
2026-05-07 19:19 46.22879 6.09539 1496 ft 140 kts 43°
2026-05-07 19:19 46.23658 6.10676 1829 ft 177 kts 45°
2026-05-07 19:19 46.24630 6.12119 2135 ft 222 kts 44°
2026-05-07 19:19 46.25789 6.13682 3300 ft 223 kts 42°
2026-05-07 19:20 46.26888 6.15125 4767 ft 208 kts 43°
2026-05-07 19:20 46.27970 6.16510 5721 ft 210 kts 42°
2026-05-07 19:20 46.29088 6.17920 6506 ft 218 kts 42°
2026-05-07 19:20 46.30256 6.19403 6900 ft 226 kts 42°
2026-05-07 19:21 46.31441 6.20913 6989 ft 228 kts 42°
2026-05-07 19:21 46.32689 6.22507 7011 ft 247 kts 42°
2026-05-07 19:21 46.33792 6.24404 7009 ft 248 kts 66°
2026-05-07 19:21 46.34112 6.26807 7012 ft 245 kts 98°
2026-05-07 19:22 46.33537 6.29074 7012 ft 241 kts 129°
2026-05-07 19:22 46.32352 6.30770 7016 ft 241 kts 142°
2026-05-07 19:22 46.31051 6.32300 7012 ft 241 kts 143°
2026-05-07 19:22 46.29742 6.33809 7012 ft 241 kts 143°
2026-05-07 19:23 46.28288 6.34955 7006 ft 238 kts 168°
2026-05-07 19:23 46.26661 6.34870 7009 ft 237 kts 200°
2026-05-07 19:23 46.25298 6.33586 7015 ft 237 kts 224°
2026-05-07 19:23 46.24165 6.31843 7012 ft 238 kts 227°
2026-05-07 19:24 46.23088 6.30073 7009 ft 237 kts 228°
2026-05-07 19:24 46.22005 6.28275 7009 ft 238 kts 228°
2026-05-07 19:24 46.20919 6.26472 7009 ft 238 kts 228°
2026-05-07 19:24 46.19834 6.24668 7009 ft 238 kts 228°
2026-05-07 19:25 46.18744 6.22862 7009 ft 239 kts 228°
2026-05-07 19:25 46.17653 6.21055 7009 ft 239 kts 228°
2026-05-07 19:25 46.16560 6.19246 7009 ft 239 kts 228°
2026-05-07 19:25 46.15472 6.17443 7008 ft 238 kts 228°
2026-05-07 19:26 46.14390 6.15649 6934 ft 233 kts 228°
2026-05-07 19:26 46.13351 6.13927 6813 ft 223 kts 228°
2026-05-07 19:26 46.12355 6.12275 6701 ft 213 kts 228°
2026-05-07 19:26 46.11415 6.10723 6585 ft 199 kts 228°
2026-05-07 19:27 46.10522 6.09243 6304 ft 193 kts 228°
2026-05-07 19:27 46.09655 6.07797 6056 ft 186 kts 228°
2026-05-07 19:27 46.08815 6.06406 5705 ft 183 kts 228°
2026-05-07 19:27 46.07974 6.05014 5310 ft 185 kts 228°
2026-05-07 19:28 46.07125 6.03622 5018 ft 185 kts 228°
2026-05-07 19:28 46.06282 6.02195 5011 ft 188 kts 236°
2026-05-07 19:28 46.05962 6.00409 5000 ft 187 kts 278°
2026-05-07 19:28 46.06488 5.98777 4773 ft 180 kts 318°
2026-05-07 19:29 46.07543 5.97920 4282 ft 174 kts 352°
2026-05-07 19:29 46.08664 5.97840 4158 ft 150 kts 360°
2026-05-07 19:29 46.09661 5.97686 3966 ft 140 kts 352°
2026-05-07 19:29 46.10597 5.97400 3932 ft 136 kts 349°
2026-05-07 19:30 46.11515 5.97077 3907 ft 135 kts 349°
2026-05-07 19:30 46.12436 5.96861 3838 ft 134 kts 360°
2026-05-07 19:30 46.13365 5.96902 3748 ft 134 kts 11°
2026-05-07 19:30 46.14251 5.97265 3642 ft 131 kts 25°
2026-05-07 19:31 46.15037 5.97918 3490 ft 130 kts 40°
2026-05-07 19:31 46.15679 5.98824 3339 ft 129 kts 46°
2026-05-07 19:31 46.16271 5.99785 3275 ft 128 kts 49°
2026-05-07 19:31 46.16875 6.00727 3263 ft 128 kts 45°
2026-05-07 19:32 46.17494 6.01653 3150 ft 128 kts 46°
2026-05-07 19:32 46.18130 6.02553 2912 ft 128 kts 42°
2026-05-07 19:32 46.18769 6.03420 2593 ft 127 kts 44°
2026-05-07 19:32 46.19389 6.04333 2332 ft 128 kts 48°
2026-05-07 19:33 46.19981 6.05294 2217 ft 129 kts 44°
2026-05-07 19:33 46.20631 6.06185 2056 ft 129 kts 44°
2026-05-07 19:33 46.21252 6.07121 1867 ft 130 kts 46°
2026-05-07 19:33 46.21879 6.08061 1688 ft 131 kts 45°
2026-05-07 19:34 46.22521 6.08995 1533 ft 132 kts 45°
2026-05-07 19:34 46.23145 6.09923 1410 ft 120 kts 45°
2026-05-07 19:34 46.23623 6.10627 1383 ft 74 kts 46°
2026-05-07 19:34 46.23841 6.10951 1380 ft 22 kts 48°
2026-05-07 19:35 46.23797 6.11079 1377 ft 16 kts 169°
2026-05-07 19:35 46.23781 6.11083 1379 ft 0 kts 169°
2026-05-07 19:36 46.23776 6.11084 1382 ft 5 kts 169°
2026-05-07 19:36 46.23707 6.11077 1386 ft 9 kts 210°
2026-05-07 19:37 46.23669 6.11030 1386 ft 9 kts 223°
2026-05-07 19:37 46.23612 6.10943 1389 ft 14 kts 227°
2026-05-07 19:37 46.23540 6.10838 1390 ft 20 kts 225°
2026-05-07 19:37 46.23411 6.10650 1396 ft 29 kts 225°
2026-05-07 19:38 46.23275 6.10457 1397 ft 26 kts 225°
2026-05-07 19:38 46.23190 6.10343 1393 ft 10 kts 206°
2026-05-07 19:38 46.23137 6.10387 1399 ft 9 kts 131°
2026-05-07 19:38 46.23097 6.10449 1393 ft 8 kts 135°
2026-05-07 19:39 46.23053 6.10482 1398 ft 7 kts 189°
2026-05-07 19:39 46.23018 6.10449 1401 ft 5 kts 199°
2026-05-07 19:39 46.22992 6.10472 1393 ft 4 kts 129°
2026-05-07 19:39 46.22980 6.10491 1395 ft 3 kts 133°
2026-05-07 19:40 46.22976 6.10497 1393 ft 0 kts 133°